Regional Weather Roundup
Issued by NWS Newport/Morehead, NC

Current Version | Previous Version | Text Only | Print | Product List | Glossary On
Versions: 1 2 3 4 5 6 7 8 9 10 11 12 13 14 15 16 17 18 19 20 21 22 23 24 25 26 27 28 29 30 31 32 33 34 35 36 37 38 39 40 41 42 43 44 45 46 47 48 49 50
000
ASUS42 KMHX 031625
RWRMHX
WEATHER ROUNDUP FOR EASTERN NORTH CAROLINA
NATIONAL WEATHER SERVICE NEWPORT/MOREHEAD CITY NC
1200 PM EDT TUE MAY 03 2016

NOTE: "FAIR" INDICATES FEW OR NO CLOUDS BELOW 12,000 FEET
WITH NO SIGNIFICANT WEATHER AND/OR OBSTRUCTIONS TO VISIBILITY

NCZ015>017-031-032-045>047-102-103-031700-
NORTH COAST

CITY           SKY/WX    TMP DP  RH WIND       PRES   REMARKS
EDENTON        CLOUDY    71  71 100 S8        29.84F
ELIZABETH CITY CLOUDY    68  65  90 S9        29.83F
KITTY HAWK     CLOUDY    68  67  97 CALM      29.85R
MANTEO         NOT AVBL

$$

NCZ045>047-081-094-103-104-031700-
CENTRAL COAST

CITY           SKY/WX    TMP DP  RH WIND       PRES   REMARKS
FRISCO         LGT RAIN  67  65  93 W14G23    29.88F
SWANQUARTER    NOT AVBL

$$

NCZ095-097-098-100-101-031700-
SOUTHERN COAST

CITY           SKY/WX    TMP DP  RH WIND       PRES   REMARKS
BEAUFORT       LGT RAIN  67  64  90 SW10      29.87F
CEDAR ISLAND   NOT AVBL
JACKSONVILLE   LGT RAIN  66  64  93 S6        29.87S
PINEY ISLAND   NOT AVBL
WILMINGTON     LGT RAIN  66  65  96 CALM      29.86F


$$

NCZ011>013-027>030-043-044-078>080-089-090>093-098-031700-
COASTAL PLAIN

CITY           SKY/WX    TMP DP  RH WIND       PRES   REMARKS
AHOSKIE        CLOUDY    67  65  93 S3        29.83F
CLINTON        CLOUDY    67  67 100 CALM      29.85F
ELIZABETHTOWN  CLOUDY    70  67  90 SE3       29.86F
GOLDSBORO      LGT RAIN  68  68 100 S7        29.82F
GREENVILLE     CLOUDY    68  66  94 SW9       29.87F
HAVELOCK       HVY RAIN  67  65  93 SW8       29.88F
KENANSVILLE    LGT RAIN  65  64  97 CALM      29.87F
KINSTON        LGT RAIN  66  64  94 S10       29.87F
NEW BERN       LGT RAIN  67  64  90 S8        29.88F
RICHLANDS      CLOUDY    66  65  96 S8        29.88F
ROCKY MOUNT    CLOUDY    70  66  87 S6        29.83F
WASHINGTON     CLOUDY    67  65  92 S9        29.84F
WHITEVILLE     CLOUDY    71  65  83 CALM      29.85F

$$

AMZ130-135-150-152-154-156-158-170-250-252-270-ANZ085-086-088-633-658-670-031700-
MARINE OBSERVATIONS

STATION/POSITION TIME  TEMP    WIND        PRES    WAVE   SWELL
                       AIR SEA DIR/SP/G            HT/PER HT/PER
                 (UTC) (F)     (DEG/KT/KT) (MB)    (FT/S) (FT/S)
CHESAPEAKE LIGHT 1600   64     220/ 13/ 14 1009.9
64 E VA BEACH    1550   58 54  240/ 10/ 10 1010.2    3/ 6   3/ 6
DUCK             1600   67 66  220/ 10/ 12 1010.1
2 E DUCK         1511      58                N/A     2/10
OREGON INLET     1600   67 71  210/ 11/ 12 1011.3
13E OREGON INLT  1600      61                N/A     5/ 6   5/ 6
HATTERAS CG      1600   67 69  260/ 19/ 22 1011.1
DIAMOND BUOY     1550   68 72  270/ 17/ 19 1012.2    5/ 7   2/17
CAPE LOOKOUT     1600   67     270/ 10/ 12 1011.3
BEAUFORT LAB     1600   67 68  240/  5/ 10 1010.6
30 SE NEW RVR IN 1525      70                N/A     6/ 7
27 SE WRIGHTSVLE 1608   67 72  290/  4/  8 1020.1
5 SE WRIGHTSVLE  1608   67 69  230/ 16     1012.7
225 S CAPE HAT   1550   74 74  180/ 16/ 17 1015.2    4/ 6   2/10
41 SE CHARLESTON 1550   75 74  230/ 12/ 14 1011.2    4/ 6   3/ 6

$$



USA.gov is the U.S. government's official web portal to all federal, state and local government web resources and services.